Retour au catalogue

STARLINK-30155

ActifCommunicationsVLEO
NORAD 57475·PAYLOAD·🇺🇸 United States

Lancé Jul 28, 2023 depuis Cape Canaveral Space Force Station

Loading…

Prochains Passages (prochaines 24 heures)

TLE

FraisSource: CelesTrak SupGP

Époque: Sep 15, 2026, 01:54 UTC

1 57475C 23107U   26258.07965278  .00012201  00000+0  44199-3 0  2581
2 57475  43.0013 346.1853 0001637 256.1558 183.3857 15.27566898    13

Suivez STARLINK-30155 en temps réel avec AllMySat

Download on the App Store